Agadir Al Massira, Morocco

4:01 PM WET on February 13, 2016 (GMT +0000)
Al-Massira

Weather History for GMAD - November, 2011

Change the Weather History Date:

Friday, November 11, 2011

  Actual Average Record
Temperature  
Mean Temperature 69 °F -  
Max Temperature 86 °F - - ()
Min Temperature 52 °F - - ()
Cooling Degree Days 4    
Growing Degree Days 19 (Base 50)    
Moisture  
Dew Point 42 °F    
Average Humidity 41    
Maximum Humidity 88    
Minimum Humidity 8    
Precipitation  
Precipitation 0.00 in - - ()
Sea Level Pressure  
Sea Level Pressure 29.96 in    
Wind  
Wind Speed 7 mph ()    
Max Wind Speed 16 mph    
Max Gust Speed -    
Visibility 6.0 miles    
Events      
T = Trace of Precipitation, MM = Missing Value Source: Averaged Metar Reports

Daily Weather History Graph

Daily Weather History Graph

Search for Another Location

Airport or City:

Trip Planner

Search our weather history database for the weather conditions in past years. The results will help you decide how hot, cold, wet, or windy it might be!

Date:

Astronomy

Nov. 11, 2011 Rise Set
Actual Time 6:59 AM WET 5:43 PM WET
Civil Twilight 6:34 AM WET 6:08 PM WET
Nautical Twilight 6:05 AM WET 6:37 PM WET
Astronomical Twilight 5:37 AM WET 7:05 PM WET
Moon 6:08 PM WET (11/11) 7:30 AM WET (11/11)
Length of Visible Light 11h 34m
Length of Day
10h 43m
Full, 100% of the Moon is Illuminated
Nov 11
Full
Nov 18
Last Quarter
Nov 25
New
Dec 2
First Quarter
Dec 10
Full

Hourly Weather History & Observations

Time (WET) Temp. Dew Point Humidity Pressure Visibility Wind Dir Wind Speed Gust Speed Precip Events Conditions
12:00 AM 56 °F 51 °F 80% 30.01 in 6 mi East 6.9 mph - -  
12:00 AM 55.4 °F 51.8 °F 88% 30.01 in - East 6.9 mph - N/A   Clear
1:00 AM 55.4 °F 51.8 °F 88% 29.98 in - North 9.2 mph - N/A   Clear
2:00 AM 55.4 °F 50.0 °F 82% 29.98 in - ENE 9.2 mph - N/A   Clear
3:00 AM 55 °F 47 °F 68% 29.97 in 6 mi ENE 8.1 mph - -  
3:00 AM 55.4 °F 48.2 °F 77% 29.95 in - ENE 8.1 mph - N/A   Clear
4:00 AM 57.2 °F 46.4 °F 67% 29.95 in - ENE 16.1 mph - N/A   Clear
5:00 AM 55.4 °F 46.4 °F 72% 29.95 in - ENE 9.2 mph - N/A   Clear
6:00 AM 59 °F 45 °F 49% 29.96 in 6 mi ENE 11.5 mph - -   Clear
6:00 AM 59.0 °F 44.6 °F 59% 29.95 in - ENE 11.5 mph - N/A   Clear
8:00 AM 59.0 °F 44.6 °F 59% 29.98 in - ENE 9.2 mph - N/A   Clear
9:00 AM 65 °F 45 °F 37% 29.98 in 6 mi NE 6.9 mph - -   Clear
9:00 AM 64.4 °F 44.6 °F 49% 29.98 in 6.2 mi NE 6.9 mph - N/A   Unknown
10:00 AM 71.6 °F 44.6 °F 38% 30.01 in - NE 10.4 mph - N/A   Clear
11:00 AM 77.0 °F 42.8 °F 29% 29.98 in - NE 8.1 mph - N/A   Clear
12:00 PM 82 °F 35 °F 10% 29.97 in 6 mi ENE 11.5 mph - -   Partly Cloudy
12:00 PM 82.4 °F 35.6 °F 19% 29.98 in - ENE 11.5 mph - N/A   Clear
1:00 PM 84.2 °F 33.8 °F 16% 29.95 in - ENE 10.4 mph - N/A   Clear
2:00 PM 86.0 °F 33.8 °F 15% 29.92 in - ENE 8.1 mph - N/A   Clear
3:00 PM 85 °F 32 °F 8% 29.91 in 6 mi NE 8.1 mph - -   Partly Cloudy
3:00 PM 86.0 °F 32.0 °F 14% 29.89 in - NE 8.1 mph - N/A   Clear
4:00 PM 84.2 °F 33.8 °F 16% 29.92 in - ENE 4.6 mph - N/A   Clear
5:00 PM 82.4 °F 37.4 °F 20% 29.92 in - NE 5.8 mph - N/A   Clear
6:00 PM 80 °F 36 °F 12% 29.91 in 6 mi NNE 2.3 mph - -   Partly Cloudy
6:00 PM 80.6 °F 35.6 °F 20% 29.92 in - NNE 2.3 mph - N/A   Clear
7:00 PM 75.2 °F 41.0 °F 29% 29.92 in - SSE 5.8 mph - N/A   Clear
8:00 PM 73.4 °F 42.8 °F 33% 29.95 in - SSW 3.5 mph - N/A   Clear
9:00 PM 70 °F 45 °F 29% 29.96 in 6 mi NNE 5.8 mph - -   Partly Cloudy
9:00 PM 69.8 °F 44.6 °F 40% 29.95 in - NNE 5.8 mph - N/A   Clear
10:00 PM 71.6 °F 37.4 °F 29% 29.95 in - NNE 9.2 mph - N/A   Clear
11:00 PM 71.6 °F 37.4 °F 29% 29.98 in - East 3.5 mph - N/A   Clear